Location: Cheraw
(34.6968°N, 79.8912°W)
Time: 22:20:11
(UTC+00:00)

N. Korean satellite - Pass Details

Date: 25 August 2022
Orbit: 428 x 468 km, 97.3° (Epoch: 24 September)

Event Time Altitude Azimuth Distance (km) Brightness Sun altitude
Rises 09:37:17 0° 33° (NNE) 2,511 11.2 -14.5°
Reaches altitude 10° 09:40:03 10° 57° (ENE) 1,621 10.6 -14.0°
Maximum altitude 09:42:08 15° 94° (E) 1,331 9.7 -13.6°
Drops below altitude 10° 09:44:11 10° 131° (SE) 1,600 9.5 -13.2°
Sets 09:46:53 0° 155° (SSE) 2,457 10.2 -12.7°
